Time,TemperatureF,DewpointF,PressureIn,WindDirection,WindDirectionDegrees,WindSpeedMPH,WindSpeedGustMPH,Humidity,HourlyPrecipIn,Conditions,Clouds,dailyrainin,SoftwareType,DateUTC
2013-07-04 00:00:00,75.4,73.2,30.11,SE,128,0.0,1.0,93,0.00,,CLR,0.00,VWS V14.01,2013-07-04 04:00:00,
2013-07-04 00:01:00,75.4,73.2,30.11,SE,129,0.0,1.0,93,0.00,,CLR,0.00,VWS V14.01,2013-07-04 04:01:00,
2013-07-04 00:06:00,75.2,73.4,30.11,ENE,65,0.0,1.0,94,0.00,,CLR,0.00,VWS V14.01,2013-07-04 04:06:00,
2013-07-04 00:11:00,75.1,73.3,30.11,East,89,0.0,0.0,94,0.00,,CLR,0.00,VWS V14.01,2013-07-04 04:11:00,
2013-07-04 00:15:00,75.0,73.2,30.11,SSE,152,0.0,1.0,94,0.00,,CLR,0.00,VWS V14.01,2013-07-04 04:15:00,
2013-07-04 00:16:00,75.0,73.2,30.11,SSE,152,0.0,1.0,94,0.00,,CLR,0.00,VWS V14.01,2013-07-04 04:16:00,
2013-07-04 00:21:00,74.9,73.1,30.11,SSE,153,0.0,0.0,94,0.00,,CLR,0.00,VWS V14.01,2013-07-04 04:21:00,
2013-07-04 00:26:00,74.8,73.3,30.11,SSE,150,0.0,2.0,95,0.00,,CLR,0.00,VWS V14.01,2013-07-04 04:26:00,
2013-07-04 00:30:00,74.7,73.2,30.11,SE,137,0.0,1.0,95,0.00,,CLR,0.00,VWS V14.01,2013-07-04 04:30:00,
2013-07-04 00:31:00,74.7,73.2,30.11,ESE,121,0.0,1.0,95,0.00,,CLR,0.00,VWS V14.01,2013-07-04 04:31:00,
2013-07-04 00:36:00,74.7,73.2,30.11,ESE,121,0.0,0.0,95,0.00,,CLR,0.00,VWS V14.01,2013-07-04 04:36:00,
2013-07-04 00:41:00,74.6,73.1,30.11,ESE,121,0.0,0.0,95,0.00,,CLR,0.00,VWS V14.01,2013-07-04 04:41:00,
2013-07-04 00:45:00,74.6,73.1,30.11,SE,143,0.0,1.0,95,0.00,,CLR,0.00,VWS V14.01,2013-07-04 04:45:00,
2013-07-04 00:46:00,74.6,73.1,30.11,SE,143,0.0,0.0,95,0.00,,CLR,0.00,VWS V14.01,2013-07-04 04:46:00,
2013-07-04 00:51:00,74.5,73.0,30.11,SE,144,0.0,0.0,95,0.00,,CLR,0.00,VWS V14.01,2013-07-04 04:51:00,
2013-07-04 00:56:00,74.3,72.8,30.11,SE,143,0.0,0.0,95,0.00,,CLR,0.00,VWS V14.01,2013-07-04 04:56:00,
2013-07-04 01:00:00,74.2,72.7,30.11,ESE,118,0.0,0.0,95,0.00,,CLR,0.00,VWS V14.01,2013-07-04 05:00:00,
2013-07-04 01:01:00,74.2,72.7,30.11,ESE,119,0.0,0.0,95,0.00,,CLR,0.00,VWS V14.01,2013-07-04 05:01:00,
2013-07-04 01:06:00,74.1,72.9,30.11,ESE,122,0.0,1.0,96,0.00,,CLR,0.00,VWS V14.01,2013-07-04 05:06:00,
2013-07-04 01:11:00,74.0,72.8,30.11,ESE,122,0.0,0.0,96,0.00,,CLR,0.00,VWS V14.01,2013-07-04 05:11:00,
2013-07-04 01:15:00,74.0,72.8,30.11,ESE,121,0.0,1.0,96,0.00,,CLR,0.00,VWS V14.01,2013-07-04 05:15:00,
2013-07-04 01:16:00,74.0,72.8,30.11,ESE,121,0.0,1.0,96,0.00,,CLR,0.00,VWS V14.01,2013-07-04 05:16:00,
2013-07-04 01:21:00,73.9,72.7,30.11,SE,143,0.0,1.0,96,0.00,,CLR,0.00,VWS V14.01,2013-07-04 05:21:00,
2013-07-04 01:26:00,73.8,72.6,30.11,SE,143,1.0,1.0,96,0.00,,CLR,0.00,VWS V14.01,2013-07-04 05:26:00,
2013-07-04 01:30:00,73.7,72.5,30.11,SE,143,0.0,1.0,96,0.00,,CLR,0.00,VWS V14.01,2013-07-04 05:30:00,
2013-07-04 01:31:00,73.7,72.5,30.11,SE,143,0.0,1.0,96,0.00,,CLR,0.00,VWS V14.01,2013-07-04 05:31:00,
2013-07-04 01:36:00,73.6,72.4,30.11,SE,144,0.0,0.0,96,0.00,,CLR,0.00,VWS V14.01,2013-07-04 05:36:00,
2013-07-04 01:41:00,73.5,72.3,30.11,SE,142,0.0,0.0,96,0.00,,CLR,0.00,VWS V14.01,2013-07-04 05:41:00,
2013-07-04 01:45:00,73.3,72.1,30.11,SE,142,0.0,0.0,96,0.00,,CLR,0.00,VWS V14.01,2013-07-04 05:45:00,
2013-07-04 01:46:00,73.3,72.1,30.11,SE,142,0.0,0.0,96,0.00,,CLR,0.00,VWS V14.01,2013-07-04 05:46:00,
2013-07-04 01:51:00,73.1,72.2,30.11,SE,142,0.0,0.0,97,0.00,,CLR,0.00,VWS V14.01,2013-07-04 05:51:00,
2013-07-04 01:56:00,73.0,72.1,30.11,SE,143,0.0,0.0,97,0.00,,CLR,0.00,VWS V14.01,2013-07-04 05:56:00,
2013-07-04 02:00:00,72.9,72.0,30.11,SE,143,0.0,0.0,97,0.00,,CLR,0.00,VWS V14.01,2013-07-04 06:00:00,
2013-07-04 02:01:00,72.9,72.0,30.11,SE,142,0.0,0.0,97,0.00,,CLR,0.00,VWS V14.01,2013-07-04 06:01:00,
2013-07-04 02:06:00,72.7,71.8,30.11,SE,142,0.0,0.0,97,0.00,,CLR,0.00,VWS V14.01,2013-07-04 06:06:00,
2013-07-04 02:11:00,72.6,72.0,30.11,SE,142,0.0,0.0,98,0.00,,CLR,0.00,VWS V14.01,2013-07-04 06:11:00,
2013-07-04 02:15:00,72.7,72.1,30.11,SE,143,0.0,0.0,98,0.00,,CLR,0.00,VWS V14.01,2013-07-04 06:15:00,
2013-07-04 02:16:00,72.7,72.1,30.11,SE,143,0.0,0.0,98,0.00,,CLR,0.00,VWS V14.01,2013-07-04 06:16:00,
2013-07-04 02:21:00,72.8,72.2,30.11,SE,143,0.0,0.0,98,0.00,,CLR,0.00,VWS V14.01,2013-07-04 06:21:00,
2013-07-04 02:26:00,72.7,72.1,30.11,SE,144,0.0,0.0,98,0.00,,CLR,0.00,VWS V14.01,2013-07-04 06:26:00,
2013-07-04 02:30:00,72.7,72.1,30.10,SE,144,0.0,0.0,98,0.00,,CLR,0.00,VWS V14.01,2013-07-04 06:30:00,
2013-07-04 02:31:00,72.7,72.1,30.10,SE,143,0.0,0.0,98,0.00,,CLR,0.00,VWS V14.01,2013-07-04 06:31:00,
2013-07-04 02:36:00,72.7,72.1,30.11,SE,129,0.0,0.0,98,0.00,,CLR,0.00,VWS V14.01,2013-07-04 06:36:00,
2013-07-04 02:41:00,72.6,72.0,30.11,SE,129,0.0,0.0,98,0.00,,CLR,0.00,VWS V14.01,2013-07-04 06:41:00,
2013-07-04 02:45:00,72.5,71.9,30.10,SE,129,0.0,0.0,98,0.00,,CLR,0.00,VWS V14.01,2013-07-04 06:45:00,
2013-07-04 02:46:00,72.5,71.9,30.11,SE,129,0.0,0.0,98,0.00,,CLR,0.00,VWS V14.01,2013-07-04 06:46:00,
2013-07-04 02:51:00,72.6,72.0,30.10,SE,134,0.0,0.0,98,0.00,,CLR,0.00,VWS V14.01,2013-07-04 06:51:00,
2013-07-04 02:56:00,72.5,71.9,30.10,SE,134,0.0,0.0,98,0.00,,CLR,0.00,VWS V14.01,2013-07-04 06:56:00,
2013-07-04 03:00:00,72.4,71.8,30.10,SE,134,0.0,0.0,98,0.00,,CLR,0.00,VWS V14.01,2013-07-04 07:00:00,
2013-07-04 03:01:00,72.3,71.7,30.10,SE,134,0.0,0.0,98,0.00,,CLR,0.00,VWS V14.01,2013-07-04 07:01:00,
2013-07-04 03:06:00,72.1,71.5,30.10,SE,134,0.0,0.0,98,0.00,,CLR,0.00,VWS V14.01,2013-07-04 07:06:00,
2013-07-04 03:11:00,72.2,71.6,30.10,SE,134,0.0,0.0,98,0.00,,CLR,0.00,VWS V14.01,2013-07-04 07:11:00,
2013-07-04 03:15:00,72.2,71.6,30.10,SE,134,0.0,0.0,98,0.00,,CLR,0.00,VWS V14.01,2013-07-04 07:15:00,
2013-07-04 03:16:00,72.2,71.6,30.10,SE,134,0.0,0.0,98,0.00,,CLR,0.00,VWS V14.01,2013-07-04 07:16:00,
2013-07-04 03:21:00,72.1,71.5,30.10,SE,134,0.0,0.0,98,0.00,,CLR,0.00,VWS V14.01,2013-07-04 07:21:00,
2013-07-04 03:26:00,72.1,71.5,30.10,SE,134,0.0,0.0,98,0.00,,CLR,0.00,VWS V14.01,2013-07-04 07:26:00,
2013-07-04 03:30:00,72.0,71.4,30.10,SE,134,0.0,0.0,98,0.00,,CLR,0.00,VWS V14.01,2013-07-04 07:30:00,
2013-07-04 03:31:00,72.0,71.7,30.10,SE,134,0.0,0.0,99,0.00,,CLR,0.00,VWS V14.01,2013-07-04 07:31:00,
2013-07-04 03:36:00,72.0,71.7,30.10,SE,134,0.0,0.0,99,0.00,,CLR,0.00,VWS V14.01,2013-07-04 07:36:00,
2013-07-04 03:41:00,72.1,71.8,30.10,SE,134,0.0,0.0,99,0.00,,CLR,0.00,VWS V14.01,2013-07-04 07:41:00,
2013-07-04 03:45:00,72.1,71.8,30.10,SE,134,0.0,0.0,99,0.00,,CLR,0.00,VWS V14.01,2013-07-04 07:45:00,
2013-07-04 03:46:00,72.1,71.8,30.10,SE,134,0.0,0.0,99,0.00,,CLR,0.00,VWS V14.01,2013-07-04 07:46:00,
2013-07-04 03:51:00,72.1,71.8,30.10,SE,134,0.0,0.0,99,0.00,,CLR,0.00,VWS V14.01,2013-07-04 07:51:00,
2013-07-04 03:56:00,72.0,71.7,30.10,SE,134,0.0,0.0,99,0.00,,CLR,0.00,VWS V14.01,2013-07-04 07:56:00,
2013-07-04 04:00:00,72.0,71.7,30.10,SE,134,0.0,0.0,99,0.00,,CLR,0.00,VWS V14.01,2013-07-04 08:00:00,
2013-07-04 04:01:00,72.0,71.7,30.10,SE,134,0.0,0.0,99,0.00,,CLR,0.00,VWS V14.01,2013-07-04 08:01:00,
2013-07-04 04:06:00,72.0,71.7,30.10,SE,134,0.0,0.0,99,0.00,,CLR,0.00,VWS V14.01,2013-07-04 08:06:00,
2013-07-04 04:11:00,71.9,71.6,30.10,SE,134,0.0,0.0,99,0.00,,CLR,0.00,VWS V14.01,2013-07-04 08:11:00,
2013-07-04 04:15:00,71.8,71.5,30.10,SE,134,0.0,0.0,99,0.00,,CLR,0.00,VWS V14.01,2013-07-04 08:15:00,
2013-07-04 04:16:00,71.8,71.5,30.10,SE,134,0.0,0.0,99,0.00,,CLR,0.00,VWS V14.01,2013-07-04 08:16:00,
2013-07-04 04:21:00,71.8,71.5,30.10,SE,134,0.0,0.0,99,0.00,,CLR,0.00,VWS V14.01,2013-07-04 08:21:00,
2013-07-04 04:26:00,71.8,71.5,30.10,SE,134,0.0,0.0,99,0.00,,CLR,0.00,VWS V14.01,2013-07-04 08:26:00,
2013-07-04 04:30:00,71.8,71.5,30.11,SE,134,0.0,0.0,99,0.00,,CLR,0.00,VWS V14.01,2013-07-04 08:30:00,
2013-07-04 04:31:00,71.8,71.5,30.11,SE,134,0.0,0.0,99,0.00,,CLR,0.00,VWS V14.01,2013-07-04 08:31:00,
2013-07-04 04:36:00,71.8,71.5,30.11,SE,134,0.0,0.0,99,0.00,,CLR,0.00,VWS V14.01,2013-07-04 08:36:00,
2013-07-04 04:41:00,71.8,71.5,30.11,SE,134,0.0,0.0,99,0.00,,CLR,0.00,VWS V14.01,2013-07-04 08:41:00,
2013-07-04 04:45:00,71.7,71.4,30.11,SE,134,0.0,0.0,99,0.00,,CLR,0.00,VWS V14.01,2013-07-04 08:45:00,
2013-07-04 04:46:00,71.6,71.3,30.11,SE,134,0.0,0.0,99,0.00,,CLR,0.00,VWS V14.01,2013-07-04 08:46:00,
2013-07-04 04:51:00,71.5,71.2,30.11,SE,134,0.0,0.0,99,0.00,,CLR,0.00,VWS V14.01,2013-07-04 08:51:00,
2013-07-04 04:56:00,71.5,71.2,30.11,SE,134,0.0,0.0,99,0.00,,CLR,0.00,VWS V14.01,2013-07-04 08:56:00,
2013-07-04 05:00:00,71.4,71.1,30.11,SE,134,0.0,0.0,99,0.00,,CLR,0.00,VWS V14.01,2013-07-04 09:00:00,
2013-07-04 05:01:00,71.4,71.1,30.11,SE,134,0.0,0.0,99,0.00,,CLR,0.00,VWS V14.01,2013-07-04 09:01:00,
2013-07-04 05:06:00,71.4,71.1,30.11,SE,134,0.0,0.0,99,0.00,,CLR,0.00,VWS V14.01,2013-07-04 09:06:00,
2013-07-04 05:11:00,71.4,71.1,30.11,SE,134,0.0,0.0,99,0.00,,CLR,0.00,VWS V14.01,2013-07-04 09:11:00,
2013-07-04 05:15:00,71.4,71.1,30.11,SE,134,0.0,0.0,99,0.00,,CLR,0.00,VWS V14.01,2013-07-04 09:15:00,
2013-07-04 05:16:00,71.4,71.1,30.11,SE,134,0.0,0.0,99,0.00,,CLR,0.00,VWS V14.01,2013-07-04 09:16:00,
2013-07-04 05:21:00,71.4,71.1,30.11,SE,134,0.0,0.0,99,0.00,,CLR,0.00,VWS V14.01,2013-07-04 09:21:00,
2013-07-04 05:26:00,71.3,71.0,30.11,SE,134,0.0,0.0,99,0.00,,CLR,0.00,VWS V14.01,2013-07-04 09:26:00,
2013-07-04 05:30:00,71.4,71.1,30.11,SE,134,0.0,0.0,99,0.00,,CLR,0.00,VWS V14.01,2013-07-04 09:30:00,
2013-07-04 05:31:00,71.3,71.0,30.11,SE,134,0.0,0.0,99,0.00,,CLR,0.00,VWS V14.01,2013-07-04 09:31:00,
2013-07-04 05:36:00,71.2,70.9,30.12,SE,134,0.0,0.0,99,0.00,,CLR,0.00,VWS V14.01,2013-07-04 09:36:00,
2013-07-04 05:41:00,71.2,70.9,30.12,SE,134,0.0,0.0,99,0.00,,CLR,0.00,VWS V14.01,2013-07-04 09:41:00,
2013-07-04 05:45:00,71.3,71.0,30.12,SE,134,0.0,0.0,99,0.00,,CLR,0.00,VWS V15.00,2013-07-04 09:45:00,
2013-07-04 05:46:00,71.3,71.0,30.12,SE,134,0.0,0.0,99,0.00,,CLR,0.00,VWS V14.01,2013-07-04 09:46:00,
2013-07-04 05:51:00,71.5,71.5,30.12,SE,134,0.0,0.0,100,0.00,,CLR,0.00,VWS V14.01,2013-07-04 09:51:00,
2013-07-04 05:56:00,71.8,71.8,30.12,NNE,18,0.0,1.0,100,0.00,,CLR,0.00,VWS V14.01,2013-07-04 09:56:00,
2013-07-04 06:00:00,71.9,71.9,30.12,NNE,19,0.0,0.0,100,0.00,,CLR,0.00,VWS V15.00,2013-07-04 10:00:00,
2013-07-04 06:01:00,71.9,71.9,30.12,NNE,19,0.0,0.0,100,0.00,,CLR,0.00,VWS V14.01,2013-07-04 10:01:00,
2013-07-04 06:06:00,72.0,72.0,30.12,NNE,19,0.0,0.0,100,0.00,,CLR,0.00,VWS V14.01,2013-07-04 10:06:00,
2013-07-04 06:11:00,72.2,71.9,30.12,West,262,0.0,2.0,99,0.00,,CLR,0.00,VWS V14.01,2013-07-04 10:11:00,
2013-07-04 06:15:00,72.4,72.4,30.12,West,261,0.0,1.0,100,0.00,,CLR,0.00,VWS V14.01,2013-07-04 10:15:00,
2013-07-04 06:16:00,72.5,72.5,30.12,West,261,0.0,1.0,100,0.00,,CLR,0.00,VWS V14.01,2013-07-04 10:16:00,
2013-07-04 06:21:00,72.9,72.9,30.12,West,262,0.0,0.0,100,0.00,,CLR,0.00,VWS V14.01,2013-07-04 10:21:00,
2013-07-04 06:26:00,73.5,73.2,30.12,West,259,0.0,0.0,99,0.00,,CLR,0.00,VWS V14.01,2013-07-04 10:26:00,
2013-07-04 06:30:00,74.1,73.8,30.12,West,259,0.0,0.0,99,0.00,,CLR,0.00,VWS V14.01,2013-07-04 10:30:00,
2013-07-04 06:31:00,74.2,73.9,30.12,West,259,0.0,0.0,99,0.00,,CLR,0.00,VWS V14.01,2013-07-04 10:31:00,
2013-07-04 06:36:00,75.1,74.5,30.12,West,259,0.0,0.0,98,0.00,,CLR,0.00,VWS V14.01,2013-07-04 10:36:00,
2013-07-04 06:41:00,75.8,74.6,30.12,West,260,0.0,0.0,96,0.00,,CLR,0.00,VWS V14.01,2013-07-04 10:41:00,
2013-07-04 06:45:00,76.1,74.6,30.12,WSW,257,0.0,0.0,95,0.00,,CLR,0.00,VWS V14.01,2013-07-04 10:45:00,
2013-07-04 06:46:00,76.2,74.7,30.12,WSW,257,0.0,0.0,95,0.00,,CLR,0.00,VWS V14.01,2013-07-04 10:46:00,
2013-07-04 06:51:00,76.7,74.8,30.12,NW,323,0.0,1.0,94,0.00,,CLR,0.00,VWS V14.01,2013-07-04 10:51:00,
2013-07-04 06:56:00,76.8,74.6,30.12,WNW,299,0.0,0.0,93,0.00,,CLR,0.00,VWS V14.01,2013-07-04 10:56:00,
2013-07-04 07:00:00,77.2,74.7,30.13,WNW,300,0.0,0.0,92,0.00,,CLR,0.00,VWS V15.00,2013-07-04 11:00:00,
2013-07-04 07:01:00,77.3,74.8,30.13,WNW,299,0.0,0.0,92,0.00,,CLR,0.00,VWS V14.01,2013-07-04 11:01:00,
2013-07-04 07:06:00,77.7,74.9,30.13,ESE,114,0.0,1.0,91,0.00,,CLR,0.00,VWS V14.01,2013-07-04 11:06:00,
2013-07-04 07:13:00,78.6,75.8,30.13,East,98,0.0,0.0,91,0.00,,CLR,0.00,VWS V14.01,2013-07-04 11:13:00,
2013-07-04 07:15:00,79.0,75.2,30.13,WSW,243,0.0,1.0,88,0.00,,CLR,0.00,VWS V15.00,2013-07-04 11:15:00,
2013-07-04 07:18:00,79.0,75.2,30.13,SSE,150,0.0,1.0,88,0.00,,CLR,0.00,VWS V14.01,2013-07-04 11:18:00,
2013-07-04 07:23:00,79.3,75.1,30.13,SW,222,1.0,1.0,87,0.00,,CLR,0.00,VWS V14.01,2013-07-04 11:23:00,
2013-07-04 07:28:00,79.5,75.3,30.14,WSW,242,1.0,2.0,87,0.00,,CLR,0.00,VWS V14.01,2013-07-04 11:28:00,
2013-07-04 07:30:00,79.6,75.4,30.14,WSW,250,0.0,1.0,87,0.00,,CLR,0.00,VWS V14.01,2013-07-04 11:30:00,
2013-07-04 07:33:00,79.8,75.6,30.14,ENE,72,1.0,1.0,87,0.00,,CLR,0.00,VWS V14.01,2013-07-04 11:33:00,
2013-07-04 07:38:00,80.2,75.6,30.14,ENE,70,0.0,0.0,86,0.00,,CLR,0.00,VWS V14.01,2013-07-04 11:38:00,
2013-07-04 07:43:00,80.5,75.6,30.14,NW,314,0.0,1.0,85,0.00,,CLR,0.00,VWS V14.01,2013-07-04 11:43:00,
2013-07-04 07:45:00,80.5,75.6,30.14,WNW,288,0.0,1.0,85,0.00,,CLR,0.00,VWS V14.01,2013-07-04 11:45:00,
2013-07-04 07:48:00,80.6,76.0,30.14,WNW,293,0.0,0.0,86,0.00,,CLR,0.00,VWS V14.01,2013-07-04 11:48:00,
2013-07-04 07:53:00,81.5,76.2,30.14,WNW,292,0.0,0.0,84,0.00,,CLR,0.00,VWS V14.01,2013-07-04 11:53:00,
2013-07-04 07:58:00,82.0,76.0,30.14,WSW,247,0.0,1.0,82,0.00,,CLR,0.00,VWS V14.01,2013-07-04 11:58:00,
2013-07-04 08:00:00,81.9,75.9,30.14,NNE,30,0.0,1.0,82,0.00,,CLR,0.00,VWS V14.01,2013-07-04 12:00:00,
2013-07-04 08:03:00,81.9,75.9,30.13,ESE,117,1.0,1.0,82,0.00,,CLR,0.00,VWS V14.01,2013-07-04 12:03:00,
2013-07-04 08:08:00,82.0,76.0,30.14,ESE,120,0.0,0.0,82,0.00,,CLR,0.00,VWS V14.01,2013-07-04 12:08:00,
2013-07-04 08:13:00,82.1,76.1,30.14,West,276,0.0,1.0,82,0.00,,CLR,0.00,VWS V14.01,2013-07-04 12:13:00,
2013-07-04 08:15:00,82.1,76.1,30.14,NE,53,0.0,1.0,82,0.00,,CLR,0.00,VWS V15.00,2013-07-04 12:15:00,
2013-07-04 08:18:00,82.3,76.3,30.14,ESE,110,0.0,2.0,82,0.00,,CLR,0.00,VWS V14.01,2013-07-04 12:18:00,
2013-07-04 08:23:00,82.7,75.9,30.13,NNW,336,0.0,0.0,80,0.00,,CLR,0.00,VWS V14.01,2013-07-04 12:23:00,
2013-07-04 08:28:00,82.8,76.0,30.13,East,101,0.0,1.0,80,0.00,,CLR,0.00,VWS V14.01,2013-07-04 12:28:00,
2013-07-04 08:30:00,82.7,75.5,30.13,West,276,0.0,2.0,79,0.00,,CLR,0.00,VWS V15.00,2013-07-04 12:30:00,
2013-07-04 08:33:00,82.7,75.9,30.13,WSW,243,1.0,2.0,80,0.00,,CLR,0.00,VWS V14.01,2013-07-04 12:33:00,
2013-07-04 08:38:00,82.8,75.2,30.13,WSW,256,1.0,2.0,78,0.00,,CLR,0.00,VWS V14.01,2013-07-04 12:38:00,
2013-07-04 08:43:00,82.8,76.0,30.13,NNW,345,0.0,3.0,80,0.00,,CLR,0.00,VWS V14.01,2013-07-04 12:43:00,
2013-07-04 08:45:00,83.0,76.6,30.13,NE,43,0.0,3.0,81,0.00,,CLR,0.00,VWS V14.01,2013-07-04 12:45:00,
2013-07-04 08:48:00,83.4,76.6,30.13,NNE,29,1.0,2.0,80,0.00,,CLR,0.00,VWS V14.01,2013-07-04 12:48:00,
2013-07-04 08:53:00,84.0,76.4,30.13,NW,312,0.0,0.0,78,0.00,,CLR,0.00,VWS V14.01,2013-07-04 12:53:00,
2013-07-04 08:58:00,84.4,76.8,30.13,SE,136,1.0,1.0,78,0.00,,CLR,0.00,VWS V14.01,2013-07-04 12:58:00,
2013-07-04 09:00:00,84.5,76.5,30.13,ESE,114,0.0,1.0,77,0.00,,CLR,0.00,VWS V15.00,2013-07-04 13:00:00,
2013-07-04 09:03:00,84.7,75.9,30.13,SE,132,0.0,2.0,75,0.00,,CLR,0.00,VWS V14.01,2013-07-04 13:03:00,
2013-07-04 09:08:00,84.7,76.3,30.13,North,6,0.0,2.0,76,0.00,,CLR,0.00,VWS V14.01,2013-07-04 13:08:00,
2013-07-04 09:13:00,84.4,76.8,30.13,SSE,159,0.0,4.0,78,0.00,,CLR,0.00,VWS V14.01,2013-07-04 13:13:00,
2013-07-04 09:15:00,84.5,76.1,30.13,East,80,0.0,2.0,76,0.00,,CLR,0.00,VWS V14.01,2013-07-04 13:15:00,
2013-07-04 09:18:00,84.8,76.4,30.13,SW,219,0.0,1.0,76,0.00,,CLR,0.00,VWS V14.01,2013-07-04 13:18:00,
2013-07-04 09:23:00,85.4,76.6,30.13,NW,316,1.0,2.0,75,0.00,,CLR,0.00,VWS V14.01,2013-07-04 13:23:00,
2013-07-04 09:28:00,85.6,77.2,30.13,WSW,248,0.0,2.0,76,0.00,,CLR,0.00,VWS V14.01,2013-07-04 13:28:00,
2013-07-04 09:30:00,85.7,76.5,30.13,SE,146,0.0,1.0,74,0.00,,CLR,0.00,VWS V15.00,2013-07-04 13:30:00,
2013-07-04 09:33:00,85.9,76.7,30.13,East,82,2.0,2.0,74,0.00,,CLR,0.00,VWS V14.01,2013-07-04 13:33:00,
2013-07-04 09:38:00,85.9,76.7,30.12,ENE,68,1.0,1.0,74,0.00,,CLR,0.00,VWS V14.01,2013-07-04 13:38:00,
2013-07-04 09:43:00,85.7,75.6,30.12,WNW,285,2.0,2.0,72,0.00,,CLR,0.00,VWS V14.01,2013-07-04 13:43:00,
2013-07-04 09:48:00,85.6,75.5,30.12,SE,143,0.0,3.0,72,0.00,,CLR,0.00,VWS V14.01,2013-07-04 13:48:00,
2013-07-04 09:53:00,85.6,76.0,30.12,West,276,1.0,2.0,73,0.00,,CLR,0.00,VWS V14.01,2013-07-04 13:53:00,
2013-07-04 09:58:00,85.7,76.1,30.12,NE,40,0.0,3.0,73,0.00,,CLR,0.00,VWS V14.01,2013-07-04 13:58:00,
2013-07-04 10:00:00,85.7,76.5,30.12,North,358,2.0,3.0,74,0.00,,CLR,0.00,VWS V14.01,2013-07-04 14:00:00,
2013-07-04 10:03:00,85.6,76.0,30.12,NW,311,1.0,3.0,73,0.00,,CLR,0.00,VWS V14.01,2013-07-04 14:03:00,
2013-07-04 10:08:00,85.9,77.1,30.12,East,79,1.0,3.0,75,0.00,,CLR,0.00,VWS V14.01,2013-07-04 14:08:00,
2013-07-04 10:13:00,86.8,76.7,30.12,SSW,208,0.0,2.0,72,0.00,,CLR,0.00,VWS V14.01,2013-07-04 14:13:00,
2013-07-04 10:15:00,86.9,76.4,30.12,North,352,1.0,2.0,71,0.00,,CLR,0.00,VWS V14.01,2013-07-04 14:15:00,
2013-07-04 10:18:00,86.9,76.4,30.12,South,191,1.0,3.0,71,0.00,,CLR,0.00,VWS V14.01,2013-07-04 14:18:00,
2013-07-04 10:23:00,86.6,76.5,30.12,WNW,285,0.0,4.0,72,0.00,,CLR,0.00,VWS V14.01,2013-07-04 14:23:00,
2013-07-04 10:28:00,86.8,77.1,30.11,ESE,117,0.0,1.0,73,0.00,,CLR,0.00,VWS V14.01,2013-07-04 14:28:00,
2013-07-04 10:30:00,87.1,77.0,30.11,East,86,1.0,1.0,72,0.00,,CLR,0.00,VWS V15.00,2013-07-04 14:30:00,
2013-07-04 10:33:00,87.5,76.5,30.11,East,91,0.0,1.0,70,0.00,,CLR,0.00,VWS V14.01,2013-07-04 14:33:00,
2013-07-04 10:38:00,87.7,75.8,30.11,East,93,1.0,3.0,68,0.00,,CLR,0.00,VWS V14.01,2013-07-04 14:38:00,
2013-07-04 10:43:00,88.1,76.7,30.11,SSE,156,1.0,3.0,69,0.00,,CLR,0.00,VWS V14.01,2013-07-04 14:43:00,
2013-07-04 10:45:00,88.2,76.3,30.11,South,186,0.0,3.0,68,0.00,,CLR,0.00,VWS V15.00,2013-07-04 14:45:00,
2013-07-04 10:48:00,88.4,76.9,30.11,ENE,72,0.0,3.0,69,0.00,,CLR,0.00,VWS V14.01,2013-07-04 14:48:00,
2013-07-04 10:53:00,88.7,76.8,30.11,NE,44,0.0,2.0,68,0.00,,CLR,0.00,VWS V14.01,2013-07-04 14:53:00,
2013-07-04 10:58:00,88.8,76.4,30.11,East,86,2.0,3.0,67,0.00,,CLR,0.00,VWS V14.01,2013-07-04 14:58:00,
2013-07-04 11:00:00,88.9,77.4,30.11,NW,322,1.0,2.0,69,0.00,,CLR,0.00,VWS V15.00,2013-07-04 15:00:00,
2013-07-04 11:03:00,88.4,76.1,30.11,South,191,0.0,2.0,67,0.00,,CLR,0.00,VWS V14.01,2013-07-04 15:03:00,
2013-07-04 11:08:00,88.7,77.2,30.11,SSW,207,0.0,1.0,69,0.00,,CLR,0.00,VWS V14.01,2013-07-04 15:08:00,
2013-07-04 11:13:00,89.1,76.7,30.11,ESE,113,0.0,2.0,67,0.00,,CLR,0.00,VWS V14.01,2013-07-04 15:13:00,
2013-07-04 11:15:00,89.5,76.7,30.11,ESE,108,0.0,2.0,66,0.00,,CLR,0.00,VWS V14.01,2013-07-04 15:15:00,
2013-07-04 11:18:00,89.6,76.7,30.11,NE,56,2.0,2.0,66,0.00,,CLR,0.00,VWS V14.01,2013-07-04 15:18:00,
2013-07-04 11:23:00,89.6,77.2,30.11,SE,138,0.0,3.0,67,0.00,,CLR,0.00,VWS V14.01,2013-07-04 15:23:00,
2013-07-04 11:28:00,89.7,77.7,30.11,South,183,1.0,4.0,68,0.00,,CLR,0.00,VWS V14.01,2013-07-04 15:28:00,
2013-07-04 11:30:00,89.9,77.9,30.11,NE,56,1.0,1.0,68,0.00,,CLR,0.00,VWS V14.01,2013-07-04 15:30:00,
2013-07-04 11:33:00,89.9,76.6,30.11,SSE,155,2.0,2.0,65,0.00,,CLR,0.00,VWS V14.01,2013-07-04 15:33:00,
2013-07-04 11:38:00,89.9,76.6,30.11,SE,136,2.0,2.0,65,0.00,,CLR,0.00,VWS V14.01,2013-07-04 15:38:00,
2013-07-04 11:43:00,90.1,76.3,30.10,SW,233,0.0,3.0,64,0.00,,CLR,0.00,VWS V14.01,2013-07-04 15:43:00,
2013-07-04 11:45:00,90.2,76.4,30.10,SE,131,6.0,6.0,64,0.00,,CLR,0.00,VWS V14.01,2013-07-04 15:45:00,
2013-07-04 11:48:00,90.0,75.7,30.10,NNW,338,0.0,6.0,63,0.00,,CLR,0.00,VWS V14.01,2013-07-04 15:48:00,
2013-07-04 11:53:00,89.9,76.1,30.10,SW,225,1.0,2.0,64,0.00,,CLR,0.00,VWS V14.01,2013-07-04 15:53:00,
2013-07-04 11:58:00,90.1,75.8,30.10,SSE,155,3.0,3.0,63,0.00,,CLR,0.00,VWS V14.01,2013-07-04 15:58:00,
2013-07-04 12:00:00,90.1,76.3,30.10,West,264,1.0,3.0,64,0.00,,CLR,0.00,VWS V14.01,2013-07-04 16:00:00,
2013-07-04 12:03:00,90.3,76.5,30.10,East,98,1.0,1.0,64,0.00,,CLR,0.00,VWS V14.01,2013-07-04 16:03:00,
2013-07-04 12:08:00,90.1,76.3,30.10,WSW,246,1.0,2.0,64,0.00,,CLR,0.00,VWS V14.01,2013-07-04 16:08:00,
2013-07-04 12:13:00,90.6,76.8,30.09,WNW,301,0.0,3.0,64,0.00,,CLR,0.00,VWS V14.01,2013-07-04 16:13:00,
2013-07-04 12:15:00,90.4,76.6,30.10,West,280,1.0,3.0,64,0.00,,CLR,0.00,VWS V14.01,2013-07-04 16:15:00,
2013-07-04 12:18:00,90.0,75.7,30.09,SW,226,2.0,4.0,63,0.00,,CLR,0.00,VWS V14.01,2013-07-04 16:18:00,
2013-07-04 12:23:00,90.0,76.7,30.09,ENE,75,0.0,2.0,65,0.00,,CLR,0.00,VWS V14.01,2013-07-04 16:23:00,
2013-07-04 12:28:00,90.3,76.5,30.09,ESE,108,1.0,3.0,64,0.00,,CLR,0.00,VWS V14.01,2013-07-04 16:28:00,
2013-07-04 12:30:00,90.6,77.7,30.09,ESE,115,1.0,3.0,66,0.00,,CLR,0.00,VWS V15.00,2013-07-04 16:30:00,
2013-07-04 12:33:00,91.0,77.1,30.09,NE,37,1.0,2.0,64,0.00,,CLR,0.00,VWS V14.01,2013-07-04 16:33:00,
2013-07-04 12:38:00,90.8,76.0,30.09,SE,146,3.0,4.0,62,0.00,,CLR,0.00,VWS V14.01,2013-07-04 16:38:00,
2013-07-04 12:43:00,90.6,75.8,30.08,WSW,249,0.0,3.0,62,0.00,,CLR,0.00,VWS V14.01,2013-07-04 16:43:00,
2013-07-04 12:45:00,90.7,76.4,30.08,NE,37,0.0,2.0,63,0.00,,CLR,0.00,VWS V14.01,2013-07-04 16:45:00,
2013-07-04 12:48:00,90.6,75.8,30.08,WSW,239,0.0,2.0,62,0.00,,CLR,0.00,VWS V14.01,2013-07-04 16:48:00,
2013-07-04 12:53:00,90.7,75.9,30.08,SSE,149,0.0,2.0,62,0.00,,CLR,0.00,VWS V14.01,2013-07-04 16:53:00,
2013-07-04 12:58:00,90.9,76.1,30.08,NE,45,3.0,3.0,62,0.00,,CLR,0.00,VWS V14.01,2013-07-04 16:58:00,
2013-07-04 13:00:00,91.0,76.2,30.08,NW,305,0.0,3.0,62,0.00,,CLR,0.00,VWS V14.01,2013-07-04 17:00:00,
2013-07-04 13:03:00,91.1,76.8,30.08,ENE,71,2.0,2.0,63,0.00,,CLR,0.00,VWS V14.01,2013-07-04 17:03:00,
2013-07-04 13:08:00,91.2,74.9,30.08,SW,217,1.0,3.0,59,0.00,,CLR,0.00,VWS V14.01,2013-07-04 17:08:00,
2013-07-04 13:13:00,91.4,75.6,30.08,SE,126,0.0,2.0,60,0.00,,CLR,0.00,VWS V14.01,2013-07-04 17:13:00,
2013-07-04 13:15:00,91.4,76.1,30.08,SW,229,2.0,2.0,61,0.00,,CLR,0.00,VWS V14.01,2013-07-04 17:15:00,
2013-07-04 13:18:00,91.2,76.4,30.08,East,90,1.0,2.0,62,0.00,,CLR,0.00,VWS V14.01,2013-07-04 17:18:00,
2013-07-04 13:23:00,91.0,76.7,30.08,NNW,342,0.0,2.0,63,0.00,,CLR,0.00,VWS V14.01,2013-07-04 17:23:00,
2013-07-04 13:28:00,91.1,76.3,30.08,SW,236,0.0,1.0,62,0.00,,CLR,0.00,VWS V14.01,2013-07-04 17:28:00,
2013-07-04 13:30:00,91.1,75.3,30.07,SE,124,1.0,4.0,60,0.00,,CLR,0.00,VWS V14.01,2013-07-04 17:30:00,
2013-07-04 13:33:00,90.7,76.4,30.07,SW,217,0.0,5.0,63,0.00,,CLR,0.00,VWS V14.01,2013-07-04 17:33:00,
2013-07-04 13:38:00,90.9,76.1,30.07,South,187,0.0,2.0,62,0.00,,CLR,0.00,VWS V14.01,2013-07-04 17:38:00,
2013-07-04 13:43:00,91.0,75.2,30.07,NE,51,2.0,2.0,60,0.00,,CLR,0.00,VWS V14.01,2013-07-04 17:43:00,
2013-07-04 13:45:00,90.9,75.1,30.07,SE,134,0.0,2.0,60,0.00,,CLR,0.00,VWS V15.00,2013-07-04 17:45:00,
2013-07-04 13:48:00,90.8,76.0,30.07,SW,230,1.0,2.0,62,0.00,,CLR,0.00,VWS V14.01,2013-07-04 17:48:00,
2013-07-04 13:53:00,91.0,76.2,30.07,SW,224,0.0,3.0,62,0.00,,CLR,0.00,VWS V14.01,2013-07-04 17:53:00,
2013-07-04 13:58:00,91.5,75.7,30.06,WNW,288,0.0,2.0,60,0.00,,CLR,0.00,VWS V14.01,2013-07-04 17:58:00,
2013-07-04 14:00:00,91.5,75.7,30.06,SSW,198,1.0,2.0,60,0.00,,CLR,0.00,VWS V15.00,2013-07-04 18:00:00,
2013-07-04 14:03:00,91.5,76.7,30.06,SW,236,0.0,2.0,62,0.00,,CLR,0.00,VWS V14.01,2013-07-04 18:03:00,
2013-07-04 14:08:00,91.5,76.2,30.06,SW,225,1.0,2.0,61,0.00,,CLR,0.00,VWS V14.01,2013-07-04 18:08:00,
2013-07-04 14:13:00,91.5,77.1,30.06,SE,133,0.0,2.0,63,0.00,,CLR,0.00,VWS V14.01,2013-07-04 18:13:00,
2013-07-04 14:15:00,91.6,76.2,30.06,NNW,341,0.0,1.0,61,0.00,,CLR,0.00,VWS V14.01,2013-07-04 18:15:00,
2013-07-04 14:18:00,91.7,76.8,30.06,SW,219,0.0,3.0,62,0.00,,CLR,0.00,VWS V14.01,2013-07-04 18:18:00,
2013-07-04 14:23:00,91.7,75.3,30.06,WNW,288,1.0,2.0,59,0.00,,CLR,0.00,VWS V14.01,2013-07-04 18:23:00,
2013-07-04 14:28:00,91.6,76.2,30.06,ESE,111,0.0,2.0,61,0.00,,CLR,0.00,VWS V14.01,2013-07-04 18:28:00,
2013-07-04 14:30:00,91.7,76.8,30.05,NW,307,0.0,2.0,62,0.00,,CLR,0.00,VWS V15.00,2013-07-04 18:30:00,
2013-07-04 14:33:00,91.6,76.7,30.06,NNW,342,0.0,2.0,62,0.00,,CLR,0.00,VWS V14.01,2013-07-04 18:33:00,
2013-07-04 14:38:00,91.7,77.3,30.05,SE,129,1.0,2.0,63,0.00,,CLR,0.00,VWS V14.01,2013-07-04 18:38:00,
2013-07-04 14:43:00,92.0,77.1,30.05,ENE,58,1.0,2.0,62,0.00,,CLR,0.00,VWS V14.01,2013-07-04 18:43:00,
2013-07-04 14:45:00,92.1,76.7,30.06,SE,127,0.0,2.0,61,0.00,,CLR,0.00,VWS V15.00,2013-07-04 18:45:00,
2013-07-04 14:48:00,92.4,78.0,30.05,SSE,160,1.0,3.0,63,0.00,,CLR,0.00,VWS V14.01,2013-07-04 18:48:00,
2013-07-04 14:53:00,92.5,77.1,30.05,WSW,249,0.0,1.0,61,0.00,,CLR,0.00,VWS V14.01,2013-07-04 18:53:00,
2013-07-04 14:58:00,92.2,75.8,30.05,SW,236,1.0,2.0,59,0.00,,CLR,0.00,VWS V14.01,2013-07-04 18:58:00,
2013-07-04 15:00:00,92.0,76.1,30.05,SE,124,3.0,3.0,60,0.00,,CLR,0.00,VWS V14.01,2013-07-04 19:00:00,
2013-07-04 15:03:00,91.9,77.0,30.05,East,84,0.0,3.0,62,0.00,,CLR,0.00,VWS V14.01,2013-07-04 19:03:00,
2013-07-04 15:08:00,92.1,76.2,30.05,West,277,1.0,4.0,60,0.00,,CLR,0.00,VWS V14.01,2013-07-04 19:08:00,
2013-07-04 15:13:00,92.0,76.6,30.05,ESE,115,1.0,1.0,61,0.00,,CLR,0.00,VWS V14.01,2013-07-04 19:13:00,
2013-07-04 15:15:00,92.1,76.7,30.05,SE,143,1.0,3.0,61,0.00,,CLR,0.00,VWS V14.01,2013-07-04 19:15:00,
2013-07-04 15:18:00,92.0,77.1,30.04,SSW,210,1.0,2.0,62,0.00,,CLR,0.00,VWS V14.01,2013-07-04 19:18:00,
2013-07-04 15:23:00,91.8,76.9,30.04,West,262,1.0,2.0,62,0.00,,CLR,0.00,VWS V14.01,2013-07-04 19:23:00,
2013-07-04 15:28:00,91.7,76.8,30.04,East,80,2.0,3.0,62,0.00,,CLR,0.00,VWS V14.01,2013-07-04 19:28:00,
2013-07-04 15:30:00,91.8,76.4,30.04,East,97,1.0,3.0,61,0.00,,CLR,0.00,VWS V14.01,2013-07-04 19:30:00,
2013-07-04 15:33:00,91.9,76.5,30.04,ESE,102,2.0,2.0,61,0.00,,CLR,0.00,VWS V14.01,2013-07-04 19:33:00,
2013-07-04 15:38:00,92.0,78.1,30.04,SE,138,3.0,3.0,64,0.00,,CLR,0.00,VWS V14.01,2013-07-04 19:38:00,
2013-07-04 15:43:00,91.6,76.2,30.04,ESE,116,0.0,2.0,61,0.00,,CLR,0.00,VWS V14.01,2013-07-04 19:43:00,
2013-07-04 15:45:00,91.6,76.2,30.04,SE,146,0.0,2.0,61,0.00,,CLR,0.00,VWS V15.00,2013-07-04 19:45:00,
2013-07-04 15:48:00,91.7,76.3,30.04,SW,220,1.0,2.0,61,0.00,,CLR,0.00,VWS V14.01,2013-07-04 19:48:00,
2013-07-04 15:53:00,91.5,76.2,30.04,SSW,211,2.0,6.0,61,0.00,,CLR,0.00,VWS V14.01,2013-07-04 19:53:00,
2013-07-04 15:58:00,91.1,76.8,30.04,NNW,341,1.0,2.0,63,0.00,,CLR,0.00,VWS V14.01,2013-07-04 19:58:00,
2013-07-04 16:00:00,91.1,76.8,30.04,WNW,290,2.0,2.0,63,0.00,,CLR,0.00,VWS V15.00,2013-07-04 20:00:00,
2013-07-04 16:03:00,91.0,76.7,30.04,East,101,0.0,2.0,63,0.00,,CLR,0.00,VWS V14.01,2013-07-04 20:03:00,
2013-07-04 16:08:00,91.2,76.8,30.04,East,91,3.0,6.0,63,0.00,,CLR,0.00,VWS V14.01,2013-07-04 20:08:00,
2013-07-04 16:13:00,91.5,76.7,30.03,SW,218,0.0,3.0,62,0.00,,CLR,0.00,VWS V14.01,2013-07-04 20:13:00,
2013-07-04 16:15:00,91.7,77.3,30.03,SW,218,0.0,1.0,63,0.00,,CLR,0.00,VWS V15.00,2013-07-04 20:15:00,
2013-07-04 16:18:00,91.9,77.0,30.04,ENE,60,0.0,3.0,62,0.00,,CLR,0.00,VWS V14.01,2013-07-04 20:18:00,
2013-07-04 16:23:00,91.5,77.1,30.03,SSE,149,0.0,3.0,63,0.00,,CLR,0.00,VWS V14.01,2013-07-04 20:23:00,
2013-07-04 16:28:00,91.3,76.0,30.03,SW,229,1.0,4.0,61,0.00,,CLR,0.00,VWS V14.01,2013-07-04 20:28:00,
2013-07-04 16:30:00,91.0,76.2,30.03,SW,229,1.0,3.0,62,0.00,,CLR,0.00,VWS V14.01,2013-07-04 20:30:00,
2013-07-04 16:33:00,90.6,75.8,30.03,WNW,285,1.0,2.0,62,0.00,,CLR,0.00,VWS V14.01,2013-07-04 20:33:00,
2013-07-04 16:38:00,90.8,76.5,30.03,WNW,285,2.0,2.0,63,0.00,,CLR,0.00,VWS V14.01,2013-07-04 20:38:00,
2013-07-04 16:43:00,90.9,76.6,30.03,SW,221,1.0,2.0,63,0.00,,CLR,0.00,VWS V14.01,2013-07-04 20:43:00,
2013-07-04 16:45:00,91.1,77.2,30.03,ESE,111,0.0,2.0,64,0.00,,CLR,0.00,VWS V14.01,2013-07-04 20:45:00,
2013-07-04 16:48:00,91.3,76.5,30.03,SE,139,0.0,1.0,62,0.00,,CLR,0.00,VWS V14.01,2013-07-04 20:48:00,
2013-07-04 16:53:00,91.1,75.8,30.03,SE,129,0.0,3.0,61,0.00,,CLR,0.00,VWS V14.01,2013-07-04 20:53:00,
2013-07-04 16:58:00,91.4,76.6,30.03,West,262,0.0,3.0,62,0.00,,CLR,0.00,VWS V14.01,2013-07-04 20:58:00,
2013-07-04 17:00:00,91.1,76.3,30.03,SSW,204,1.0,3.0,62,0.00,,CLR,0.00,VWS V14.01,2013-07-04 21:00:00,
2013-07-04 17:03:00,90.7,75.9,30.03,WSW,240,1.0,4.0,62,0.00,,CLR,0.00,VWS V14.01,2013-07-04 21:03:00,
2013-07-04 17:08:00,90.5,75.7,30.03,SE,129,0.0,2.0,62,0.00,,CLR,0.00,VWS V14.01,2013-07-04 21:08:00,
2013-07-04 17:13:00,90.8,75.5,30.03,ESE,105,0.0,4.0,61,0.00,,CLR,0.00,VWS V14.01,2013-07-04 21:13:00,
2013-07-04 17:15:00,90.9,76.6,30.03,WNW,285,1.0,2.0,63,0.00,,CLR,0.00,VWS V15.00,2013-07-04 21:15:00,
2013-07-04 17:18:00,91.0,76.2,30.02,WNW,282,0.0,1.0,62,0.00,,CLR,0.00,VWS V14.01,2013-07-04 21:18:00,
2013-07-04 17:23:00,91.4,76.6,30.02,WSW,256,1.0,2.0,62,0.00,,CLR,0.00,VWS V14.01,2013-07-04 21:23:00,
2013-07-04 17:28:00,91.6,77.2,30.02,ESE,111,1.0,1.0,63,0.00,,CLR,0.00,VWS V14.01,2013-07-04 21:28:00,
2013-07-04 17:30:00,91.7,77.3,30.02,SW,219,1.0,2.0,63,0.00,,CLR,0.00,VWS V15.00,2013-07-04 21:30:00,
2013-07-04 17:33:00,91.3,76.0,30.02,WSW,252,1.0,6.0,61,0.00,,CLR,0.00,VWS V14.01,2013-07-04 21:33:00,
2013-07-04 17:38:00,91.0,76.7,30.02,SE,138,2.0,2.0,63,0.00,,CLR,0.00,VWS V14.01,2013-07-04 21:38:00,
2013-07-04 17:43:00,90.9,77.0,30.03,SSW,204,0.0,2.0,64,0.00,,CLR,0.00,VWS V14.01,2013-07-04 21:43:00,
2013-07-04 17:45:00,91.0,76.7,30.03,North,10,1.0,2.0,63,0.00,,CLR,0.00,VWS V15.00,2013-07-04 21:45:00,
2013-07-04 17:48:00,91.2,77.3,30.02,SE,139,0.0,2.0,64,0.00,,CLR,0.00,VWS V14.01,2013-07-04 21:48:00,
2013-07-04 17:53:00,90.7,76.4,30.02,SW,231,0.0,3.0,63,0.00,,CLR,0.00,VWS V14.01,2013-07-04 21:53:00,
2013-07-04 17:58:00,90.6,76.3,30.02,WNW,301,0.0,3.0,63,0.00,,CLR,0.00,VWS V14.01,2013-07-04 21:58:00,
2013-07-04 18:00:00,90.6,76.3,30.02,WNW,302,0.0,3.0,63,0.00,,CLR,0.00,VWS V14.01,2013-07-04 22:00:00,
2013-07-04 18:03:00,90.8,76.9,30.02,East,85,0.0,1.0,64,0.00,,CLR,0.00,VWS V14.01,2013-07-04 22:03:00,
2013-07-04 18:08:00,90.9,76.6,30.02,NNE,19,1.0,4.0,63,0.00,,CLR,0.00,VWS V14.01,2013-07-04 22:08:00,
2013-07-04 18:13:00,90.7,76.8,30.02,SE,136,1.0,2.0,64,0.00,,CLR,0.00,VWS V14.01,2013-07-04 22:13:00,
2013-07-04 18:15:00,90.4,76.1,30.02,SSW,200,0.0,2.0,63,0.00,,CLR,0.00,VWS V15.00,2013-07-04 22:15:00,
2013-07-04 18:18:00,90.2,76.4,30.02,SW,234,0.0,1.0,64,0.00,,CLR,0.00,VWS V14.01,2013-07-04 22:18:00,
2013-07-04 18:23:00,90.2,76.8,30.02,West,259,0.0,1.0,65,0.00,,CLR,0.00,VWS V14.01,2013-07-04 22:23:00,
2013-07-04 18:28:00,90.0,76.2,30.02,WSW,249,0.0,2.0,64,0.00,,CLR,0.00,VWS V14.01,2013-07-04 22:28:00,
2013-07-04 18:30:00,89.8,76.0,30.02,SSE,151,0.0,2.0,64,0.00,,CLR,0.00,VWS V14.01,2013-07-04 22:30:00,
2013-07-04 18:33:00,89.8,76.5,30.02,SW,215,0.0,2.0,65,0.00,,CLR,0.00,VWS V14.01,2013-07-04 22:33:00,
2013-07-04 18:38:00,89.5,75.7,30.02,SSW,204,0.0,3.0,64,0.00,,CLR,0.00,VWS V14.01,2013-07-04 22:38:00,
2013-07-04 18:43:00,88.9,75.6,30.02,SW,226,0.0,1.0,65,0.00,,CLR,0.00,VWS V14.01,2013-07-04 22:43:00,
2013-07-04 18:45:00,88.7,75.4,30.02,SW,226,0.0,1.0,65,0.00,,CLR,0.00,VWS V14.01,2013-07-04 22:45:00,
2013-07-04 18:48:00,88.3,76.0,30.02,West,272,0.0,1.0,67,0.00,,CLR,0.00,VWS V14.01,2013-07-04 22:48:00,
2013-07-04 18:53:00,87.8,75.9,30.02,SSE,148,0.0,0.0,68,0.00,,CLR,0.00,VWS V14.01,2013-07-04 22:53:00,
2013-07-04 18:58:00,87.4,76.0,30.02,SSE,148,0.0,0.0,69,0.00,,CLR,0.00,VWS V14.01,2013-07-04 22:58:00,
2013-07-04 19:00:00,87.2,75.8,30.02,WNW,285,0.0,0.0,69,0.00,,CLR,0.00,VWS V14.01,2013-07-04 23:00:00,
2013-07-04 19:03:00,86.8,75.8,30.02,WNW,284,0.0,0.0,70,0.00,,CLR,0.00,VWS V14.01,2013-07-04 23:03:00,
2013-07-04 19:08:00,86.2,76.1,30.03,South,191,0.0,0.0,72,0.00,,CLR,0.00,VWS V14.01,2013-07-04 23:08:00,
2013-07-04 19:13:00,85.9,75.8,30.03,South,178,0.0,1.0,72,0.00,,CLR,0.00,VWS V14.01,2013-07-04 23:13:00,
2013-07-04 19:15:00,85.7,76.1,30.03,South,176,0.0,1.0,73,0.00,,CLR,0.00,VWS V15.00,2013-07-04 23:15:00,
2013-07-04 19:18:00,85.5,76.3,30.03,South,180,0.0,1.0,74,0.00,,CLR,0.00,VWS V14.01,2013-07-04 23:18:00,
2013-07-04 19:23:00,85.2,76.4,30.03,ESE,117,0.0,0.0,75,0.00,,CLR,0.00,VWS V14.01,2013-07-04 23:23:00,
2013-07-04 19:28:00,85.0,76.2,30.03,SE,131,0.0,1.0,75,0.00,,CLR,0.00,VWS V14.01,2013-07-04 23:28:00,
2013-07-04 19:30:00,85.0,76.2,30.03,SE,131,0.0,0.0,75,0.00,,CLR,0.00,VWS V15.00,2013-07-04 23:30:00,
2013-07-04 19:33:00,84.7,76.3,30.03,ESE,106,0.0,2.0,76,0.00,,CLR,0.00,VWS V14.01,2013-07-04 23:33:00,
2013-07-04 19:38:00,84.3,75.9,30.03,ESE,105,0.0,0.0,76,0.00,,CLR,0.00,VWS V14.01,2013-07-04 23:38:00,
2013-07-04 19:43:00,84.1,75.7,30.03,SSE,150,0.0,3.0,76,0.00,,CLR,0.00,VWS V14.01,2013-07-04 23:43:00,
2013-07-04 19:45:00,84.0,76.0,30.03,SSE,150,0.0,2.0,77,0.00,,CLR,0.00,VWS V15.00,2013-07-04 23:45:00,
2013-07-04 19:48:00,83.9,75.9,30.03,ESE,106,0.0,1.0,77,0.00,,CLR,0.00,VWS V14.01,2013-07-04 23:48:00,
2013-07-04 19:53:00,83.7,75.7,30.03,SE,132,1.0,1.0,77,0.00,,CLR,0.00,VWS V14.01,2013-07-04 23:53:00,
2013-07-04 19:58:00,83.4,75.8,30.03,SW,228,0.0,1.0,78,0.00,,CLR,0.00,VWS V14.01,2013-07-04 23:58:00,
2013-07-04 20:00:00,83.3,75.7,30.03,SSE,153,1.0,2.0,78,0.00,,CLR,0.00,VWS V14.01,2013-07-05 00:00:00,
2013-07-04 20:03:00,83.2,75.6,30.03,SSE,150,0.0,2.0,78,0.00,,CLR,0.00,VWS V14.01,2013-07-05 00:03:00,
2013-07-04 20:08:00,83.0,75.4,30.03,NNE,32,0.0,2.0,78,0.00,,CLR,0.00,VWS V14.01,2013-07-05 00:08:00,
2013-07-04 20:13:00,82.9,75.3,30.03,SSE,148,0.0,0.0,78,0.00,,CLR,0.00,VWS V14.01,2013-07-05 00:13:00,
2013-07-04 20:15:00,82.8,75.2,30.03,SSE,148,0.0,0.0,78,0.00,,CLR,0.00,VWS V14.01,2013-07-05 00:15:00,
2013-07-04 20:18:00,82.7,75.2,30.03,East,87,0.0,1.0,78,0.00,,CLR,0.00,VWS V14.01,2013-07-05 00:18:00,
2013-07-04 20:23:00,82.5,74.9,30.04,North,11,0.0,1.0,78,0.00,,CLR,0.00,VWS V14.01,2013-07-05 00:23:00,
2013-07-04 20:28:00,82.4,74.9,30.04,West,266,0.0,1.0,78,0.00,,CLR,0.00,VWS V14.01,2013-07-05 00:28:00,
2013-07-04 20:30:00,82.3,74.8,30.04,West,266,0.0,0.0,78,0.00,,CLR,0.00,VWS V15.00,2013-07-05 00:30:00,
2013-07-04 20:33:00,82.2,74.7,30.03,West,266,0.0,0.0,78,0.00,,CLR,0.00,VWS V14.01,2013-07-05 00:33:00,
2013-07-04 20:38:00,82.1,74.9,30.04,SSW,212,0.0,2.0,79,0.00,,CLR,0.00,VWS V14.01,2013-07-05 00:38:00,
2013-07-04 20:43:00,81.9,74.8,30.04,West,262,0.0,1.0,79,0.00,,CLR,0.00,VWS V14.01,2013-07-05 00:43:00,
2013-07-04 20:45:00,81.9,74.8,30.04,West,262,0.0,1.0,79,0.00,,CLR,0.00,VWS V14.01,2013-07-05 00:45:00,
2013-07-04 20:48:00,81.8,74.7,30.04,ESE,108,2.0,2.0,79,0.00,,CLR,0.00,VWS V14.01,2013-07-05 00:48:00,
2013-07-04 20:53:00,81.7,74.6,30.04,SSE,150,0.0,0.0,79,0.00,,CLR,0.00,VWS V14.01,2013-07-05 00:53:00,
2013-07-04 20:58:00,81.6,74.5,30.04,SSE,150,0.0,0.0,79,0.00,,CLR,0.00,VWS V14.01,2013-07-05 00:58:00,
2013-07-04 21:00:00,81.5,74.4,30.04,SSE,149,0.0,0.0,79,0.00,,CLR,0.00,VWS V14.01,2013-07-05 01:00:00,
2013-07-04 21:03:00,81.4,74.3,30.04,SSE,149,0.0,0.0,79,0.00,,CLR,0.00,VWS V14.01,2013-07-05 01:03:00,
2013-07-04 21:08:00,81.2,74.4,30.04,SSE,150,0.0,0.0,80,0.00,,CLR,0.00,VWS V14.01,2013-07-05 01:08:00,
2013-07-04 21:13:00,80.9,74.2,30.05,SSW,195,1.0,1.0,80,0.00,,CLR,0.00,VWS V14.01,2013-07-05 01:13:00,
2013-07-04 21:15:00,80.9,74.2,30.05,SSW,196,0.0,1.0,80,0.00,,CLR,0.00,VWS V15.00,2013-07-05 01:15:00,
2013-07-04 21:18:00,80.8,74.4,30.04,SSE,162,0.0,1.0,81,0.00,,CLR,0.00,VWS V14.01,2013-07-05 01:18:00,
2013-07-04 21:23:00,80.8,74.4,30.05,NNE,21,0.0,2.0,81,0.00,,CLR,0.00,VWS V14.01,2013-07-05 01:23:00,
2013-07-04 21:28:00,80.7,74.3,30.04,NNE,27,0.0,1.0,81,0.00,,CLR,0.00,VWS V14.01,2013-07-05 01:28:00,
2013-07-04 21:29:00,80.6,74.2,30.04,NNE,27,0.0,1.0,81,0.00,,CLR,0.00,VWS V14.01,2013-07-05 01:29:00,
2013-07-04 21:30:00,80.6,74.2,30.05,NE,37,0.0,1.0,81,0.00,,CLR,0.00,VWS V15.00,2013-07-05 01:30:00,
2013-07-04 21:34:00,80.5,74.1,30.05,West,277,0.0,1.0,81,0.00,,CLR,0.00,VWS V14.01,2013-07-05 01:34:00,
2013-07-04 21:39:00,80.4,74.0,30.05,SE,131,0.0,1.0,81,0.00,,CLR,0.00,VWS V14.01,2013-07-05 01:39:00,
2013-07-04 21:44:00,80.3,73.9,30.05,SE,131,0.0,1.0,81,0.00,,CLR,0.00,VWS V14.01,2013-07-05 01:44:00,
2013-07-04 21:45:00,80.3,73.9,30.05,SE,129,0.0,1.0,81,0.00,,CLR,0.00,VWS V14.01,2013-07-05 01:45:00,
2013-07-04 21:49:00,80.2,73.8,30.05,SE,129,0.0,0.0,81,0.00,,CLR,0.00,VWS V14.01,2013-07-05 01:49:00,
2013-07-04 21:54:00,80.2,73.8,30.05,SE,131,0.0,1.0,81,0.00,,CLR,0.00,VWS V14.01,2013-07-05 01:54:00,
2013-07-04 21:59:00,80.1,73.8,30.05,SE,131,0.0,0.0,81,0.00,,CLR,0.00,VWS V14.01,2013-07-05 01:59:00,
2013-07-04 22:00:00,80.1,74.1,30.06,SSE,156,0.0,1.0,82,0.00,,CLR,0.00,VWS V15.00,2013-07-05 02:00:00,
2013-07-04 22:04:00,80.0,74.0,30.05,West,262,0.0,1.0,82,0.00,,CLR,0.00,VWS V14.01,2013-07-05 02:04:00,
2013-07-04 22:08:00,80.0,74.0,30.05,SW,222,0.0,2.0,82,0.00,,CLR,0.00,VWS V14.01,2013-07-05 02:08:00,
2013-07-04 22:13:00,80.0,74.0,30.05,SSW,207,2.0,2.0,82,0.00,,CLR,0.00,VWS V14.01,2013-07-05 02:13:00,
2013-07-04 22:15:00,79.9,73.9,30.05,WSW,240,0.0,2.0,82,0.00,,CLR,0.00,VWS V15.00,2013-07-05 02:15:00,
2013-07-04 22:18:00,79.9,74.3,30.05,SSW,203,0.0,4.0,83,0.00,,CLR,0.00,VWS V14.01,2013-07-05 02:18:00,
2013-07-04 22:23:00,79.9,74.3,30.05,SW,218,0.0,4.0,83,0.00,,CLR,0.00,VWS V14.01,2013-07-05 02:23:00,
2013-07-04 22:28:00,79.9,74.3,30.05,NW,309,1.0,3.0,83,0.00,,CLR,0.00,VWS V14.01,2013-07-05 02:28:00,
2013-07-04 22:30:00,79.9,74.6,30.05,WSW,242,1.0,3.0,84,0.00,,CLR,0.00,VWS V14.01,2013-07-05 02:30:00,
2013-07-04 22:33:00,79.9,74.6,30.05,WSW,239,0.0,1.0,84,0.00,,CLR,0.00,VWS V14.01,2013-07-05 02:33:00,
2013-07-04 22:38:00,79.9,74.6,30.05,SW,225,1.0,4.0,84,0.00,,CLR,0.00,VWS V14.01,2013-07-05 02:38:00,
2013-07-04 22:43:00,80.0,74.7,30.05,West,259,1.0,3.0,84,0.00,,CLR,0.00,VWS V14.01,2013-07-05 02:43:00,
2013-07-04 22:45:00,80.0,74.7,30.05,WSW,253,0.0,3.0,84,0.00,,CLR,0.00,VWS V14.01,2013-07-05 02:45:00,
2013-07-04 22:48:00,80.0,75.1,30.05,NNW,340,0.0,5.0,85,0.00,,CLR,0.00,VWS V14.01,2013-07-05 02:48:00,
2013-07-04 22:53:00,79.9,75.0,30.05,WSW,240,1.0,2.0,85,0.00,,CLR,0.00,VWS V14.01,2013-07-05 02:53:00,
2013-07-04 22:58:00,79.8,74.9,30.05,South,170,1.0,1.0,85,0.00,,CLR,0.00,VWS V14.01,2013-07-05 02:58:00,
2013-07-04 23:00:00,79.8,74.9,30.05,SSW,198,1.0,3.0,85,0.00,,CLR,0.00,VWS V14.01,2013-07-05 03:00:00,
2013-07-04 23:03:00,79.7,75.2,30.05,ENE,60,0.0,3.0,86,0.00,,CLR,0.00,VWS V14.01,2013-07-05 03:03:00,
2013-07-04 23:08:00,79.6,75.1,30.05,ESE,121,0.0,1.0,86,0.00,,CLR,0.00,VWS V14.01,2013-07-05 03:08:00,
2013-07-04 23:13:00,79.4,74.8,30.05,East,89,0.0,1.0,86,0.00,,CLR,0.00,VWS V14.01,2013-07-05 03:13:00,
2013-07-04 23:15:00,79.4,74.8,30.05,SE,135,0.0,2.0,86,0.00,,CLR,0.00,VWS V15.00,2013-07-05 03:15:00,
2013-07-04 23:18:00,79.3,75.1,30.05,South,184,1.0,3.0,87,0.00,,CLR,0.00,VWS V14.01,2013-07-05 03:18:00,
2013-07-04 23:23:00,79.2,75.0,30.05,ESE,114,1.0,2.0,87,0.00,,CLR,0.00,VWS V14.01,2013-07-05 03:23:00,
2013-07-04 23:28:00,79.1,74.9,30.05,ESE,111,0.0,1.0,87,0.00,,CLR,0.00,VWS V14.01,2013-07-05 03:28:00,
2013-07-04 23:30:00,79.0,74.8,30.05,SE,131,0.0,2.0,87,0.00,,CLR,0.00,VWS V15.00,2013-07-05 03:30:00,
2013-07-04 23:33:00,79.0,75.2,30.05,SSW,211,0.0,3.0,88,0.00,,CLR,0.00,VWS V14.01,2013-07-05 03:33:00,
2013-07-04 23:38:00,78.8,74.9,30.05,WNW,283,0.0,4.0,88,0.00,,CLR,0.00,VWS V14.01,2013-07-05 03:38:00,
2013-07-04 23:43:00,78.7,74.8,30.06,WSW,257,0.0,1.0,88,0.00,,CLR,0.00,VWS V14.01,2013-07-05 03:43:00,
2013-07-04 23:45:00,78.7,74.8,30.05,WSW,257,0.0,1.0,88,0.00,,CLR,0.00,VWS V15.00,2013-07-05 03:45:00,
2013-07-04 23:48:00,78.6,74.8,30.05,North,358,0.0,2.0,88,0.00,,CLR,0.00,VWS V14.01,2013-07-05 03:48:00,
2013-07-04 23:53:00,78.5,75.0,30.05,NNE,32,2.0,2.0,89,0.00,,CLR,0.00,VWS V14.01,2013-07-05 03:53:00,
2013-07-04 23:54:00,78.5,75.0,30.05,NNE,32,1.0,2.0,89,0.00,,CLR,0.00,VWS V14.01,2013-07-05 03:54:00,
2013-07-04 23:59:00,78.4,74.9,30.06,West,263,0.0,1.0,89,0.00,,CLR,0.00,VWS V14.01,2013-07-05 03:59:00,